Regional Weather Roundup
Issued by NWS State College, PA

Home | Current Version | Previous Version | Text Only | Print | Product List | Glossary On
Versions: 1 2 3 4 5 6 7 8 9 10 11 12 13 14 15 16 17 18 19 20 21 22 23 24 25 26 27 28 29 30 31 32 33 34 35 36 37 38 39 40 41 42 43 44 45 46 47 48 49 50
627
ASUS41 KCTP 220903
RWRCTP

REGIONAL WEATHER ROUNDUP
NATIONAL WEATHER SERVICE STATE COLLEGE PA
400 AM EST THU FEB 22 2018

Note: "fair" indicates few or no clouds below 12,000 feet with no
significant weather and/or obstructions to visibility.

* = STATION THAT DOES NOT REPORT PRECIPITATION /E.G. RAIN...SNOW...ETC/
    THUNDER OR FOG.

PAZ002>004-007>009-013>016-020>023-029>032-221000-
WESTERN PENNSYLVANIA

CITY           SKY/WX    TMP DP  RH WIND       PRES   REMARKS
ERIE           CLOUDY    33  27  78 NE14      30.58F
MEADVILLE      CLOUDY    32  30  92 NE8       30.51F
FRANKLIN*      LGT RAIN  33  31  92 NE12      30.50F
NEW CASTLE     LGT RAIN  36  34  92 N7        30.52S
BEAVER COUNTY  NOT AVBL
BUTLER*        CLOUDY    38  35  89 NE8       30.48F
PITTSBURGH INT LGT RAIN  43  37  79 NE9       30.46F
PITTSBURGH     LGT RAIN  39  37  92 N5        30.45F
INDIANA*       MOCLDY    39  37  93 E8        30.51S FOG
LATROBE        CLOUDY    41  39  93 N8        30.47F
WASHINGTON CO* LGT RAIN  40  39  97 NE10      30.47F
$$

PAZ004>006-010>012-017>019-024>028-033>037-041-042-045-046-049>053-221000-
CENTRAL PENNSYLVANIA

CITY           SKY/WX    TMP DP  RH WIND       PRES   REMARKS
BRADFORD       CLOUDY    34  25  69 VRB6      30.51F
DUBOIS         MIX PCPN  36  26  67 NE9       30.48S
CLEARFIELD     LGT RAIN  40  29  64 NE6       30.50S
JOHNSTOWN      RAIN      39  33  79 VRB7      30.43S
ALTOONA        LGT RAIN  43  36  76 N13       30.47S
STATE COLLEGE  CLOUDY    40  26  57 NE8       30.49S
WILLIAMSPORT   CLOUDY    42  25  50 N6        30.53F
SELINSGROVE    CLOUDY    43  29  57 N12       30.51F
FT INDIANTOWN  CLOUDY    45  34  64 NE5       30.48F
CAPITAL CITY   CLOUDY    48  39  71 E5        30.49S
HARRISBURG     CLOUDY    48  32  53 NE3       30.49S
YORK           CLOUDY    48  38  68 N8        30.47S
$$

PAZ038>040-043-044-047-048-054-055-060>062-067>071-221000-
EASTERN PENNSYLVANIA

CITY           SKY/WX    TMP DP  RH WIND       PRES   REMARKS
SCRANTON       CLOUDY    39  33  79 N9        30.54R
MOUNT POCONO   CLOUDY    37  31  78 N9        30.47
ALLENTOWN      CLOUDY    45  37  73 NE9       30.50S
QUAKERTOWN*    CLOUDY    48  34  57 N8G14     30.49S
READING        CLOUDY    44  39  82 NE8       30.49S
LANCASTER      CLOUDY    48  33  56 NE13      30.47F
COATESVILLE    PTSUNNY   50 N/A N/A N7        30.48R
POTTSTOWN      CLOUDY    49  32  52 N7        30.50R
BLUE BELL      CLOUDY    50  32  50 N5        30.49S
DOYLESTOWN     CLOUDY    49  34  56 N13       30.48S
WILLOW GROVE   NOT AVBL
NORTH PHILA    CLOUDY    54  33  45 N15       30.49R
PHILADELPHIA   CLOUDY    54  31  41 N14       30.47R
$$




USA.gov is the U.S. government's official web portal to all federal, state and local government web resources and services.